Location: Sternwarte_Laufen
(47.9344°N, 12.9346°E)
Time: 16:47:16
(UTC+02:00)

ISS - Pass Details

Date: 19 July 2018
Orbit: 402 x 408 km, 51.6° (Epoch: 20 July)

Event Time Altitude Azimuth Distance (km) Brightness Sun altitude
Exits shadow 01:30:32 - 276° (W) 1,870 -0.4 -21.1°
Reaches altitude 10° 01:31:33 10° 281° (W) 1,467 -0.9 -21.1°
Maximum altitude 01:34:43 43° 354° (N) 587 -2.6 -21.0°
Drops below altitude 10° 01:37:53 10° 68° (ENE) 1,471 -0.7 -21.0°
Sets 01:40:02 0° 75° (ENE) 2,333 0.3 -20.9°
